Flag for U.S.A. Weather past 2 weeks in New Bedford, Massachusetts, U.S.A.

Now
32 °F

Overcast.


Feels Like: 29 °F
Forecast: 24 / 40 °F
Wind: 3 mph from North

Location: New Bedford Regional Airport

Current Time: Dec 19, 2014 at 9:21:26 PM

Latest Report: Dec 19, 2014 at 8:53 PM


Visibility: 10 mi

Pressure: 30.10 "Hg

Humidity: 73%

Dew point: 24 °F

Location of New BedfordLocation

Historic Weather in New Bedford — Graph

°F

New Bedford temperature yesterday

Maximum temperature yesterday: 45 °F (at 12:53 PM)
Minimum temperature yesterday: 35 °F (at 9:53 PM)
Average temperature yesterday: 39 °F

Past Weeks' High & Low Weather Summary

 TemperatureHumidityPressure
High55 °F (Dec 9, 6:53 PM)100% (Dec 6, 4:53 AM)30.70 "Hg (Dec 6, 4:53 AM)
Low25 °F (Dec 15, 6:53 AM)38% (Dec 7, 5:53 PM)29.42 "Hg (Dec 10, 2:53 PM)
Average38 °F81%30.00 "Hg
* Reported Dec 4 7:53 PM — Dec 19 7:53 PM, New Bedford, Weather by CustomWeather, © 2014

Note: Actual official high and low records may vary slightly from our data, if they occured in-between our weather recording intervals... More about our weather records

Advertising

New Bedford weather history for previous 24 hours

 ConditionsComfort  
Time TempWeatherWind HumidityBarometerVisibility
7:53 PM
Dec 19
34 °FOvercast.No wind64%30.08 "Hg10 mi
6:53 PM34 °FOvercast.No wind64%30.06 "Hg10 mi
5:53 PM33 °FOvercast.No wind66%30.03 "Hg10 mi
4:53 PM34 °FOvercast.No wind61%30.01 "Hg10 mi
3:53 PM34 °FOvercast.3 mph61%29.99 "Hg10 mi
2:53 PM35 °FOvercast.3 mph59%29.97 "Hg10 mi
1:53 PM36 °FOvercast.7 mph59%29.94 "Hg10 mi
12:53 PM36 °FOvercast.6 mph62%29.93 "Hg10 mi
11:53 AM36 °FOvercast.7 mph59%29.94 "Hg10 mi
10:53 AM37 °FOvercast.8 mph62%29.94 "Hg10 mi
9:53 AM37 °FOvercast.8 mph62%29.95 "Hg10 mi
8:53 AM37 °FScattered clouds.9 mph65%29.93 "Hg10 mi
7:53 AM31 °FPartly sunny.5 mph82%29.92 "Hg10 mi
6:53 AM30 °FClear.No wind85%29.91 "Hg10 mi
5:53 AM31 °FClear.5 mph82%29.89 "Hg10 mi
4:53 AM33 °FPassing clouds.6 mph78%29.88 "Hg10 mi
3:53 AM34 °FPassing clouds.7 mph76%29.87 "Hg10 mi
2:53 AM34 °FOvercast.8 mph76%29.88 "Hg10 mi
1:53 AM34 °FPassing clouds.8 mph76%29.87 "Hg10 mi
12:53 AM36 °FOvercast.8 mph73%29.87 "Hg10 mi
11:53 PM
Dec 18
35 °FPassing clouds.9 mph72%29.87 "Hg10 mi
10:53 PM35 °FPassing clouds.8 mph75%29.87 "Hg10 mi
9:53 PM35 °FClear.8 mph72%29.86 "Hg10 mi
Weather by CustomWeather, © 2014

See weather overviewHow to use our weather pages